This demonstration page uses our WeatherBlox Daily Observations layout. Learn more.

Left ArrowRight Arrow

53.62937, 11.41316

Hourly Observations for June 22, 2017

Temp ( °F °C ) Dew Point ( °F °C ) Humidity (%) Winds ( mph kmh ) Pressure ( in mb ) Visibility ( mi km ) Precip ( " mm )
6:20 am 06:20 Mostly Sunny 55 13 55 13 100 100 NE 2 4 29.94 1014 7 11 N/A
6:50 am 06:50 Mostly Sunny 59 15 55 13 88 88 VRB 1 2 29.94 1014 7 11 N/A
7:20 am 07:20 Mostly Sunny 63 17 54 12 73 73 VRB 1 2 29.91 1013 7 11 N/A
7:50 am 07:50 Mostly Sunny 64 18 54 12 68 68 VRB 2 4 29.91 1013 7 11 N/A
8:20 am 08:20 Mostly Sunny 64 18 54 12 68 68 SE 3 6 29.91 1013 7 11 N/A
8:50 am 08:50 Mostly Sunny 66 19 54 12 64 64 SSE 5 7 29.91 1013 7 11 N/A
9:20 am 09:20 Mostly Sunny 68 20 54 12 60 60 S 5 7 29.91 1013 7 11 N/A
9:50 am 09:50 Mostly Sunny 68 20 54 12 60 60 SSE 7 11 29.91 1013 7 11 N/A
10:20 am 10:20 Mostly Sunny 72 22 54 12 53 53 S 5 7 29.88 1012 7 11 N/A
10:50 am 10:50 Mostly Sunny 73 23 54 12 50 50 SSE 9 15 29.88 1012 7 11 N/A
11:20 am 11:20 Mostly Sunny 73 23 54 12 50 50 SSE 9 15 29.88 1012 7 11 N/A
11:50 am 11:50 Mostly Sunny 73 23 55 13 53 53 SSE 6 9 29.85 1011 7 11 N/A
12:20 pm 12:20 Mostly Sunny 70 21 57 14 64 64 SE 3 6 29.88 1012 7 11 N/A
12:39 pm 12:39 Mostly Cloudy with Nearby Thunderstorms 70 21 57 14 64 64 N 10 17 29.94 1014 30 48 N/A
12:50 pm 12:50 Mostly Cloudy with Strong Thunderstorms 63 17 57 14 83 83 NW 16 26 29.97 1015 2 3 N/A
1:20 pm 13:20 Cloudy with Thunderstorms 61 16 59 15 94 94 E 8 13 29.94 1014 30 48 N/A
1:50 pm 13:50 Mostly Cloudy 61 16 59 15 94 94 ESE 13 20 29.83 1010 30 48 N/A
2:20 pm 14:20 Mostly Sunny 61 16 59 15 94 94 NE 7 11 29.83 1010 7 11 N/A
2:50 pm 14:50 Mostly Sunny 64 18 61 16 88 88 ESE 8 13 29.80 1009 7 11 N/A
3:20 pm 15:20 Mostly Sunny 68 20 63 17 83 83 ESE 9 15 29.80 1009 7 11 N/A
3:50 pm 15:50 Mostly Sunny 72 22 64 18 78 78 SE 7 11 29.77 1008 7 11 N/A
4:20 pm 16:20 Mostly Sunny 72 22 61 16 69 69 SSE 9 15 29.77 1008 7 11 N/A
4:50 pm 16:50 Mostly Sunny 75 24 64 18 69 69 SSE 10 17 29.74 1007 7 11 N/A
5:20 pm 17:20 Mostly Sunny 75 24 63 17 65 65 SE 10 17 29.74 1007 7 11 N/A
5:50 pm 17:50 Mostly Sunny 77 25 64 18 65 65 S 8 13 29.74 1007 7 11 N/A

Powered by AerisWeather